THOR ABLESTAR DEB, 652

Orbit data source: Space-Track

THOR ABLESTAR DEB, 652 is space debris in LEO originally from a launch on Thu, 29 Jun 1961 UTC launched from the Air Force Eastern Test Range (AFETR). Debris objects in space refer to the collection of defunct objects orbiting the Earth. Examples of debris include non-operational satellites, rocket bodies, and fragments generated from explosions, collisions, or faulty payload assembly.

Loading next visibility...
Identifier
652, 1961-015HD
Orbit
LEO
Country
Flag of USUS
Related business
Manufacturer
Unknown
Mission
Spacecraft
Bus & Motor
Unknown
Mass
Unknown
Launch date (UTC)
1961-06-29 (65 years ago)
Launch vehicle
Unknown
Launch site
Air Force Eastern Test Range (AFETR)
Object type
Payload
Rocket body
Debris
Shape & HBR
Unknown shape, 0.1 m
Radar Cross Section
Small (<0.1 m²)

Expand to show TLE details & history
Last TLE update: 13 hours ago

TLE from 13 hours ago
0 THOR ABLESTAR DEB
1 00652U 61015HD  26256.10711031  .00001117  00000-0  55870-3 0  9999
2 00652  66.7035 240.8262 0076858 291.5958  67.6958 14.18911056306331
Epoch: 2026-09-13T02:34Z
TLE epoch observation values (Epoch: 2026-09-13T02:34:14.330Z)
Latitude
-0.00002°
Longitude
-149.84003°
Altitude
810.475 km
Speed
7.459 km/s
True Right ascension
16h 03m 18s
True Declination
0° 00' 00"
Sunlit
Object was in daylight at epoch
Visualization orbit readout
Latitude
Unknown
Longitude
Unknown
Altitude
Unknown
Speed
Unknown
Apparent Right ascension
Unknown
Apparent Declination
Unknown
Sunlit
N/A
Visualization observer readout
Local Sidereal Time
08:23:35
Azimuth
Unknown
Elevation
Unknown
Doppler factor
Unknown
Orbital elements
Apogee altitude
882.801 km
Perigee altitude
772.04 km
Semi-major axis
7,205.558 km
Eccentricity
0.00769
Inclination
66.7035°
RAAN
240.8262°
Arg. of periapsis
291.5958°
True anomaly
68.51359°
Mean anomaly
67.6958°
Eccentric anomaly
68.1044°
Mean motion
3.54848 °/min
Orbital period
101.45 mins
BSTAR
0.0005587
Loading maneuver chart data...
Computing Atmospheric mass density...
Loading historical data...
Loading historical data...
Loading historical data...
Loading historical data...
Loading historical data...
Loading historical data...
Loading historical data...

Documentation

Showing up to 5 results
|